(514667) = 2005 UN267

Discovered at Kitt Peak on 2005-10-27 by Spacewatch.

Orbit

Orbit type: Main Belt

Note: WebGL enabled browser required.

epoch2022-01-21.0
epoch JD2459600.5
perihelion date2021-04-16.86321
perihelion JD2459321.36321
argument of perihelion (°)11.13250
ascending node (°)91.77264
inclination (°)2.75021
eccentricity0.1809604
perihelion distance (AU)1.9801051
Tisserand w.r.t. Jupiter3.5
ΔV w.r.t. Earth (km/sec)8.8
semimajor axis (AU)2.4175938
mean anomaly (°)73.18902
mean daily motion (°/day)0.26219770
aphelion distance (AU)2.855
period (years)3.76
P-vector [x]-0.22311528
P-vector [y]0.89062874
P-vector [z]0.39623228
Q-vector [x]-0.97361159
Q-vector [y]-0.22360303
Q-vector [z]-0.04563066
absolute magnitude17.86
phase slope0.15
uncertainty0
referenceMPO 701200
observations used132
oppositions8
arc length (days)7465
first opposition used2001
last opposition used2022
residual rms (arc-secs)0.88
perturbers coarse indicatorM-v
perturbers precise indicator003Ek
first observation date used2001-11-18.0
last observation date used2022-04-27.0
computer namePan

Observations

154 total observations over interval: 2001 11 18.218110 – 2022 06 02.305100
These data are available for download (format description).

